When you browse on this site, cookies collect data to enhance your experience and personalize the content and advertising you see.
Visit our Privacy Policy to learn more. By continuing to use the site, you agree to this use of cookies and data.
  • In Sweden
  • List of Countries
  • For 7 days
  • Water Temperature
  • Weather Map
  • Weather Widgets
  • user-avatar
    Login

    Hourly Weather Smeshovo

    Today, 17 September, Tuesday

    Time Temperature Precipitation Wind Pressure Humidity
    00:00 +6°C° 0 mm 4 mps 737 mmHg 92%
    01:00 +6°C° 0 mm 4 mps 737 mmHg 93%
    02:00 +6°C° 0 mm 4 mps 737 mmHg 93%
    03:00 +6°C° 0.1 mm 4 mps 737 mmHg 93%
    04:00 +6°C° 0.1 mm 4 mps 737 mmHg 93%
    05:00 +6°C° 0.1 mm 4 mps 737 mmHg 93%
    06:00 +6°C° 0 mm 4 mps 737 mmHg 93%
    07:00 +7°C° 0 mm 4 mps 737 mmHg 92%
    08:00 +7°C° 0 mm 4 mps 737 mmHg 91%
    09:00 +8°C° 0.2 mm 4 mps 737 mmHg 87%
    10:00 +10°C° 0.2 mm 4 mps 737 mmHg 84%
    11:00 +11°C° 0.2 mm 4 mps 737 mmHg 80%
    12:00 +11°C° 0.3 mm 4 mps 737 mmHg 79%
    13:00 +11°C° 0.3 mm 4 mps 737 mmHg 79%
    14:00 +11°C° 0.3 mm 4 mps 737 mmHg 78%
    15:00 +11°C° 0.1 mm 4 mps 737 mmHg 80%
    16:00 +10°C° 0.1 mm 3 mps 736 mmHg 82%
    17:00 +10°C° 0.1 mm 3 mps 736 mmHg 83%
    18:00 +9°C° 0 mm 2 mps 736 mmHg 87%
    19:00 +7°C° 0 mm 2 mps 736 mmHg 91%
    20:00 +7°C° 0 mm 1 mps 736 mmHg 95%
    21:00 +7°C° 0 mm 1 mps 736 mmHg 96%
    22:00 +6°C° 0 mm 1 mps 735 mmHg 96%
    23:00 +6°C° 0 mm 1 mps 735 mmHg 96%

    Tomorrow, 18 September, Wednesday

    Time Temperature Precipitation Wind Pressure Humidity
    00:00 +6°C° 0 mm 1 mps 735 mmHg 96%
    01:00 +6°C° 0 mm 1 mps 735 mmHg 96%
    02:00 +5°C° 0 mm 0 mps 735 mmHg 96%
    03:00 +6°C° 0.1 mm 1 mps 735 mmHg 96%
    04:00 +6°C° 0.1 mm 1 mps 735 mmHg 96%
    05:00 +7°C° 0.1 mm 1 mps 735 mmHg 96%
    06:00 +7°C° 0 mm 1 mps 735 mmHg 94%
    07:00 +7°C° 0 mm 2 mps 736 mmHg 93%
    08:00 +7°C° 0 mm 2 mps 736 mmHg 92%
    09:00 +8°C° 0 mm 2 mps 737 mmHg 84%
    10:00 +10°C° 0 mm 2 mps 737 mmHg 77%
    11:00 +11°C° 0 mm 3 mps 738 mmHg 69%
    12:00 +12°C° 0 mm 3 mps 738 mmHg 65%
    13:00 +12°C° 0 mm 3 mps 738 mmHg 60%
    14:00 +12°C° 0 mm 3 mps 739 mmHg 56%
    15:00 +12°C° 0.1 mm 3 mps 739 mmHg 63%
    16:00 +11°C° 0.1 mm 3 mps 740 mmHg 69%
    17:00 +10°C° 0.1 mm 2 mps 740 mmHg 75%
    18:00 +9°C° 0.1 mm 2 mps 741 mmHg 81%
    19:00 +8°C° 0.1 mm 2 mps 741 mmHg 86%
    20:00 +7°C° 0.1 mm 2 mps 742 mmHg 92%
    21:00 +7°C° 0 mm 2 mps 742 mmHg 93%
    22:00 +7°C° 0 mm 2 mps 743 mmHg 93%
    23:00 +6°C° 0 mm 2 mps 744 mmHg 94%

    Day after tomorrow, 19 September, Thursday

    Time Temperature Precipitation Wind Pressure Humidity
    00:00 +6°C° 0 mm 2 mps 744 mmHg 94%
    01:00 +6°C° 0 mm 2 mps 744 mmHg 94%
    02:00 +5°C° 0 mm 2 mps 745 mmHg 94%
    03:00 +4°C° 0 mm 2 mps 745 mmHg 95%
    04:00 +4°C° 0 mm 2 mps 745 mmHg 96%
    05:00 +3°C° 0 mm 2 mps 746 mmHg 96%
    06:00 +4°C° 0 mm 2 mps 746 mmHg 94%
    07:00 +4°C° 0 mm 2 mps 747 mmHg 91%
    08:00 +5°C° 0 mm 2 mps 747 mmHg 88%
    09:00 +6°C° 0.1 mm 2 mps 747 mmHg 82%
    10:00 +8°C° 0.1 mm 2 mps 748 mmHg 75%
    11:00 +9°C° 0.1 mm 2 mps 748 mmHg 68%
    12:00 +9°C° 0.1 mm 2 mps 748 mmHg 69%
    13:00 +9°C° 0.1 mm 2 mps 748 mmHg 69%
    14:00 +9°C° 0.1 mm 2 mps 748 mmHg 70%
    15:00 +9°C° 0.2 mm 2 mps 748 mmHg 73%
    16:00 +9°C° 0.2 mm 1 mps 748 mmHg 77%
    17:00 +9°C° 0.2 mm 1 mps 748 mmHg 81%
    18:00 +8°C° 0.1 mm 1 mps 748 mmHg 84%
    19:00 +8°C° 0.1 mm 1 mps 748 mmHg 87%
    20:00 +7°C° 0.1 mm 1 mps 749 mmHg 91%
    21:00 +6°C° 0 mm 1 mps 749 mmHg 92%
    22:00 +4°C° 0 mm 0 mps 749 mmHg 93%
    23:00 +3°C° 0 mm 0 mps 749 mmHg 95%

    20 September, Friday

    Time Temperature Precipitation Wind Pressure Humidity
    00:00 +4°C° 0 mm 1 mps 749 mmHg 95%
    01:00 +3°C° 0 mm 1 mps 750 mmHg 95%
    02:00 +3°C° 0 mm 1 mps 750 mmHg 95%
    03:00 +3°C° 0 mm 1 mps 750 mmHg 95%
    04:00 +2°C° 0 mm 1 mps 750 mmHg 95%
    05:00 +2°C° 0 mm 1 mps 751 mmHg 95%
    06:00 +2°C° 0 mm 2 mps 751 mmHg 92%
    07:00 +3°C° 0 mm 2 mps 752 mmHg 89%
    08:00 +4°C° 0 mm 2 mps 752 mmHg 86%
    09:00 +5°C° 0 mm 2 mps 752 mmHg 78%
    10:00 +7°C° 0 mm 3 mps 753 mmHg 69%
    11:00 +8°C° 0 mm 3 mps 754 mmHg 60%
    12:00 +9°C° 0 mm 3 mps 754 mmHg 56%
    13:00 +9°C° 0 mm 3 mps 754 mmHg 52%
    14:00 +10°C° 0 mm 3 mps 754 mmHg 48%
    15:00 +9°C° 0.1 mm 3 mps 754 mmHg 56%
    16:00 +8°C° 0.1 mm 2 mps 754 mmHg 64%
    17:00 +7°C° 0.1 mm 2 mps 754 mmHg 73%
    18:00 +6°C° 0 mm 2 mps 754 mmHg 78%
    19:00 +4°C° 0 mm 2 mps 755 mmHg 84%
    20:00 +3°C° 0 mm 2 mps 755 mmHg 89%
    21:00 +3°C° 0 mm 1 mps 755 mmHg 90%
    22:00 +3°C° 0 mm 1 mps 755 mmHg 90%
    23:00 +2°C° 0 mm 1 mps 755 mmHg 91%

    21 September, Saturday

    Time Temperature Precipitation Wind Pressure Humidity
    00:00 +3°C° 0 mm 1 mps 755 mmHg 89%
    01:00 +3°C° 0 mm 1 mps 755 mmHg 87%
    02:00 +3°C° 0 mm 1 mps 755 mmHg 85%
    03:00 +3°C° 0 mm 1 mps 755 mmHg 85%
    04:00 +3°C° 0 mm 1 mps 755 mmHg 85%
    05:00 +3°C° 0 mm 2 mps 755 mmHg 85%
    06:00 +3°C° 0.1 mm 2 mps 754 mmHg 85%
    07:00 +4°C° 0.1 mm 2 mps 754 mmHg 85%
    08:00 +3°C° 0.1 mm 3 mps 754 mmHg 85%
    09:00 +4°C° 0.2 mm 3 mps 753 mmHg 86%
    10:00 +4°C° 0.2 mm 3 mps 753 mmHg 87%
    11:00 +4°C° 0.2 mm 4 mps 753 mmHg 89%
    12:00 +4°C° 1.1 mm 3 mps 752 mmHg 91%
    13:00 +4°C° 1.1 mm 3 mps 752 mmHg 94%
    14:00 +4°C° 1.1 mm 3 mps 752 mmHg 96%
    15:00 +6°C° 0.5 mm 2 mps 751 mmHg 97%
    16:00 +6°C° 0.5 mm 2 mps 751 mmHg 97%
    17:00 +6°C° 0.5 mm 2 mps 751 mmHg 98%
    18:00 +7°C° 0.1 mm 1 mps 751 mmHg 98%
    19:00 +8°C° 0.1 mm 1 mps 751 mmHg 99%
    20:00 +8°C° 0.1 mm 1 mps 751 mmHg 99%
    21:00 +8°C° 0.1 mm 1 mps 751 mmHg 99%
    22:00 +8°C° 0.1 mm 1 mps 751 mmHg 99%
    23:00 +8°C° 0.1 mm 1 mps 752 mmHg 99%

    22 September, Sunday

    Time Temperature Precipitation Wind Pressure Humidity
    00:00 +9°C° 0 mm 1 mps 752 mmHg 99%
    01:00 +9°C° 0 mm 1 mps 752 mmHg 99%
    02:00 +9°C° 0 mm 1 mps 752 mmHg 99%
    03:00 +9°C° 0 mm 1 mps 752 mmHg 99%
    04:00 +9°C° 0 mm 2 mps 752 mmHg 99%
    05:00 +9°C° 0 mm 2 mps 753 mmHg 98%
    06:00 +9°C° 0 mm 2 mps 753 mmHg 97%
    07:00 +9°C° 0 mm 2 mps 753 mmHg 96%
    08:00 +10°C° 0 mm 3 mps 753 mmHg 95%
    09:00 +11°C° 0 mm 3 mps 753 mmHg 91%
    10:00 +12°C° 0 mm 3 mps 754 mmHg 87%
    11:00 +14°C° 0 mm 3 mps 754 mmHg 83%
    12:00 +16°C° 0 mm 3 mps 754 mmHg 78%
    13:00 +17°C° 0 mm 3 mps 754 mmHg 72%
    14:00 +18°C° 0 mm 3 mps 754 mmHg 67%
    15:00 +18°C° 0 mm 3 mps 754 mmHg 71%
    16:00 +17°C° 0 mm 2 mps 753 mmHg 75%
    17:00 +17°C° 0 mm 2 mps 753 mmHg 79%
    18:00 +16°C° 0 mm 2 mps 754 mmHg 85%
    19:00 +14°C° 0 mm 2 mps 754 mmHg 90%
    20:00 +12°C° 0 mm 3 mps 754 mmHg 95%
    21:00 +12°C° 0 mm 3 mps 754 mmHg 96%
    22:00 +11°C° 0 mm 3 mps 754 mmHg 96%
    23:00 +12°C° 0 mm 2 mps 754 mmHg 96%
    Show more